CAPE
468 258 12 49 94 204 311 410 562 642 709 570 329 863 581 70 120 325 691 1687 1694 1050 925 852 949 1145 1321 1470 1748 2058 2426 2775 3007 3053 3073 3021 2876 2710 2490 2271 2232 2176 2063
360 236 143 336 541 474 674 690 499 670 658 431 64 79 289 457 739 218 107 306 1191 1142 1164 1151 1296 1416 1595 1832 2099 2371 2685 3094 3298 3276 3477 3527 3471 3171 3105 3119 2811 2662 2344
378 293 358 438 401 366 897 1057 1105 932 1044 730 298 129 246 435 641 942 466 129 259 1159 1257 1382 1970 2430 1885 1958 2391 3054 3382 3620 3417 3378 3395 3332 3234 3227 3073 3248 3400 2870 2469
252 656 657 665 262 589 754 946 883 968 1135 507 495 458 227 387 659 1040 1104 742 1247 1409 1524 1930 2533 2635 2189 2124 2819 3796 3764 3539 3157 3316 3303 3178 2964 2978 3231 3228 2859 3071 3023
913 1171 846 707 624 997 1484 1398 1685 1544 926 483 481 614 658 596 647 761 1046 1087 1046 1103 1628 1960 1903 2178 2245 2483 3499 3699 3929 3465 3214 3158 3338 3198 2847 2568 2919 3209 2973 2800 2589
1177 1295 953 468 918 1238 1609 1544 1784 1516 1423 610 667 680 588 594 645 698 816 1031 1093 1324 1442 1665 1849 1893 1758 2056 2930 3108 3587 3504 3326 3239 3345 3267 2973 2503 2401 2838 2667 2750 2840
1235 1109 962 408 855 1225 1414 2054 1826 1349 1298 1079 1009 840 655 517 598 917 865 1059 1106 1095 1064 1296 1500 1626 1670 1714 1756 2489 2212 2456 2928 3347 3327 3250 3142 2814 2197 2374 2280 2404 2423
1225 890 973 777 765 963 1306 1831 1954 1546 1502 1522 1223 538 362 419 429 498 691 913 1092 1140 1076 1110 1304 1850 1916 1795 1522 1962 1469 1399 2316 2900 3113 2974 2879 2797 2548 2006 2249 2072 1943
1330 1016 846 705 689 697 1060 1345 1764 1539 1316 1310 1399 1094 725 667 684 475 523 559 698 915 988 1083 1324 1522 1723 1716 1518 1267 1314 1181 1417 1720 2160 2302 2538 2519 2512 2484 2225 2004 1687
957 1119 894 624 598 380 800 1049 1372 1591 1138 1090 861 911 752 747 835 362 449 582 574 594 734 950 1205 1309 1416 1410 1335 1178 1044 672 1091 1293 1395 1415 1888 2279 2511 2593 2464 1995 1683
831 1152 836 675 810 564 721 1166 1393 1438 1330 737 554 425 503 479 398 493 421 368 455 509 569 590 615 803 881 970 755 73 331 487 804 1148 1447 1531 1650 1861 1836 2518 2613 2407 2174
640 1096 1128 827 771 774 586 863 1300 1403 1280 1029 566 622 464 212 248 239 295 242 334 334 328 440 391 407 426 388 390 432 410 252 722 1091 1177 1229 1391 1653 1520 1235 1697 2470 2895
379 643 976 1104 766 614 342 147 975 897 1082 1166 1110 750 586 268 186 424 466 312 319 135 113 239 316 240 300 214 120 269 202 79 698 932 996 1333 1596 1539 1224 735 978 1109 2386
335 444 576 1034 703 491 428 819 894 813 941 766 575 973 1068 691 552 553 461 411 527 443 304 423 222 468 375 256 321 480 495 569 704 685 1330 904 854 1146 844 456 535 336 947
432 287 384 701 780 754 773 845 920 610 627 681 618 444 889 824 546 516 436 308 401 286 344 334 387 383 616 531 540 538 541 564 521 1243 1041 763 659 856 747 565 506 439 315
213 128 255 411 500 561 597 839 919 772 594 577 596 168 782 618 756 702 615 605 552 582 377 471 528 477 486 782 887 1118 1110 1243 1551 1154 780 645 522 520 539 511 468 445 490
240 59 160 376 296 381 453 715 684 720 644 397 363 530 412 629 504 577 530 734 444 539 486 284 194 389 714 719 642 714 933 980 788 828 955 614 688 875 981 889 894 1077 1233
183 3 34 235 7 438 770 703 698 670 620 510 432 370 520 596 761 561 620 518 323 518 491 246 244 525 677 767 776 630 918 880 757 877 801 538 1005 1253 1296 1294 1296 1157 974
246 287 327 287 654 694 692 696 661 657 753 794 643 611 564 644 704 637 515 463 425 504 470 439 359 400 247 297 489 508 808 817 847 787 803 597 936 1123 1233 1297 989 926 733
377 443 461 594 726 545 442 368 373 520 528 443 552 609 659 674 674 525 411 421 535 502 513 295 285 0 128 183 329 508 575 679 791 611 711 587 677 804 960 786 673 672 808
105 155 401 451 503 495 435 234 87 174 202 263 420 470 452 284 267 217 175 228 222 382 379 325 171 225 242 280 411 514 637 555 289 736 495 514 671 488 220 338 436 730 549
30 96 116 201 180 234 321 175 89 52 120 247 333 285 240 152 160 269 225 152 335 445 304 219 185 232 224 297 303 279 302 113 124 426 351 498 344 253 43 10 0 125 175
60 78 98 79 60 38 5 0 0 34 107 258 400 366 239 134 160 144 120 226 243 185 203 247 182 82 46 83 16 21 0 18 66 222 400 541 142 106 0 0 115 0 0
118 77 57 56 26 19 21 26 3 2 31 157 223 303 256 174 116 78 67 74 173 144 108 90 63 23 2 0 0 43 69 52 28 247 79 77 25 4 0 7 30 0 0
137 79 54 30 12 11 31 45 127 145 148 149 147 148 154 133 83 41 23 28 20 14 12 11 0 0 0 0 0 0 13 29 30 61 3 0 0 0 0 9 0 0 0
158 109 65 38 29 19 1 2 0 47 101 94 71 77 83 74 65 43 20 1 0 0 0 0 0 0 0 0 0 0 0 5 9 0 0 0 0 0 0 0 0 0 0
CIN
-97 -56 -20 -27 -52 -40 -85 -25 -26 -13 -18 -48 -54 -81 -114 -279 -328 -325 -197 -70 -78 -123 -129 -140 -134 -106 -82 -54 -36 -19 -3 -0 -0 -0 -0 -0 -0 -0 -1 -21 -4 -3 -1
-68 -50 -30 -55 -83 -71 -109 -102 -82 -12 -25 -65 -108 -129 -165 -81 -40 -175 -505 -356 -148 -149 -123 -139 -125 -114 -94 -68 -51 -37 -22 -10 -9 -9 -1 -0 -0 -0 -0 -0 -0 -2 -4
-38 -29 -54 -71 -202 -24 -23 -94 -76 -73 -28 -62 -60 -106 -84 -63 -49 -32 -116 -507 -152 -197 -167 -138 -91 -63 -82 -79 -53 -21 -15 -5 -16 -24 -20 -18 -13 -5 -3 -0 -0 -11 -20
-63 -25 -78 -99 -281 -29 -195 -55 -28 -38 -61 -31 -23 -63 -106 -58 -37 -21 -40 -61 -18 -23 -17 -112 -105 -94 -107 -95 -61 -14 -10 -13 -26 -26 -33 -39 -43 -39 -14 -3 -21 -10 -6
-24 -44 -100 -140 -124 -75 -48 -74 -26 -37 -52 -19 -7 -12 -24 -25 -44 -55 -29 -36 -49 -20 -6 -7 -8 -149 -115 -76 -28 -20 -11 -23 -39 -36 -21 -25 -47 -67 -44 -18 -20 -23 -28
-38 -33 -49 -51 -76 -36 -55 -53 -26 -84 -25 -11 -17 -16 -20 -27 -52 -47 -43 -30 -19 -13 -16 -13 -8 -12 -51 -136 -91 -81 -47 -51 -56 -48 -34 -31 -39 -66 -74 -42 -37 -26 -21
-46 -35 -30 -22 -36 -20 -34 -43 -47 -67 -35 -41 -20 -20 -49 -61 -58 -20 -17 -25 -37 -43 -41 -12 -29 -22 -27 -36 -208 -149 -163 -146 -116 -73 -56 -54 -43 -41 -80 -73 -64 -43 -33
-23 -108 -38 -59 -76 -28 -38 -50 -62 -68 -42 -73 -38 -44 -29 -33 -33 -37 -21 -21 -44 -58 -68 -37 -86 -77 -49 -47 -241 -230 -275 -267 -170 -122 -99 -93 -74 -59 -47 -96 -72 -66 -57
-46 -26 -41 -30 -52 -37 -34 -37 -55 -98 -55 -52 -50 -41 -46 -33 -46 -40 -57 -65 -47 -53 -55 -155 -164 -134 -93 -55 -147 -132 -267 -63 -64 -185 -145 -134 -111 -88 -59 -60 -79 -71 -76
-57 -39 -28 -46 -42 -39 -37 -43 -44 -76 -69 -58 -33 -34 -44 -88 -24 -76 -94 -61 -63 -94 -71 -158 -139 -113 -94 -88 -74 -202 -285 -298 -39 -32 -15 -58 -144 -92 -60 -44 -62 -53 -79
-33 -62 -30 -66 -32 -58 -51 -53 -57 -68 -82 -55 -29 -23 -51 -38 -31 -25 -62 -58 -47 -112 -69 -51 -120 -169 -97 -45 -41 -279 -395 -407 -34 -39 -21 -22 -33 -121 -94 -35 -45 -52 -49
-19 -28 -31 -14 -22 -41 -43 -43 -47 -44 -65 -57 -50 -48 -59 -37 -40 -33 -69 -42 -54 -45 -49 -101 -104 -94 -45 -188 -397 -403 -412 -483 -45 -22 -12 -14 -16 -31 -144 -105 -85 -46 -21
-75 -14 -23 -22 -18 -42 -51 -35 -38 -44 -46 -56 -45 -46 -48 -28 -62 -73 -91 -70 -57 -77 -169 -240 -178 -80 -71 -57 -82 -254 -500 -398 -30 -11 -12 -11 -14 -30 -74 -216 -164 -138 -52
-61 -12 -18 -20 -18 -44 -45 -61 -42 -51 -62 -38 -37 -52 -43 -36 -50 -49 -57 -49 -42 -43 -56 -38 -47 -41 -37 -69 -97 -85 -55 -48 -29 -13 -15 -104 -6 -16 -84 -37 -71 -269 -186
-35 -33 -34 -39 -23 -33 -38 -26 -24 -35 -55 -39 -33 -35 -55 -49 -65 -68 -66 -12 -63 -32 -33 -33 -24 -46 -39 -62 -65 -69 -89 -83 -61 -58 -135 -51 -39 -10 -3 -13 -58 -48 -25
-151 -47 -88 -46 -33 -18 -27 -31 -22 -17 -23 -27 -25 -92 -23 -39 -30 -33 -35 -34 -38 -39 -22 -18 -22 -18 -41 -30 -39 -52 -56 -56 -60 -124 -79 -70 -2 -12 -33 -22 -27 -35 -50
-56 -70 -118 -27 -36 -26 -18 -21 -22 -21 -14 -15 -69 -53 -45 -27 -31 -38 -44 -38 -20 -41 -29 -20 -41 -40 -34 -33 -47 -59 -21 -91 -131 -81 -60 -46 -80 -67 -66 -62 -50 -37 -37
-37 -4 -26 -26 -8 -60 -22 -20 -14 -56 -18 -24 -31 -34 -27 -33 -19 -22 -14 -28 -43 -23 -22 -25 -38 -34 -31 -43 -57 -7 -94 -137 -118 -89 -86 -108 -57 -20 -23 -22 -28 -12 -9
-33 -31 -29 -38 -29 -19 -15 -16 -28 -21 -18 -15 -25 -25 -21 -21 -13 -14 -12 -11 -7 -13 -7 -13 -25 -43 -31 -67 -82 -84 -82 -95 -93 -104 -87 -105 -48 -10 -6 -10 -8 -11 -4
-55 -48 -37 -33 -20 -17 -21 -31 -40 -28 -34 -60 -48 -47 -43 -29 -20 -26 -32 -34 -17 -31 -13 -10 -15 -0 -81 -78 -65 -60 -91 -84 -93 -94 -87 -83 -86 -39 -6 -7 -15 -56 -39
-44 -45 -38 -38 -26 -23 -21 -31 -35 -33 -50 -33 -74 -63 -33 -63 -96 -74 -98 -74 -63 -41 -33 -24 -32 -40 -40 -34 -30 -42 -45 -77 -139 -74 -127 -87 -38 -89 -7 -10 -7 -59 -30
-11 -58 -78 -41 -33 -25 -20 -18 -59 -60 -56 -94 -74 -42 -34 -39 -88 -55 -38 -50 -71 -46 -44 -33 -55 -59 -60 -49 -69 -80 -69 -155 -146 -73 -127 -80 -108 -127 -202 -9 -1 -55 -110
-40 -71 -70 -56 -7 -7 -4 -0 -57 -46 -53 -62 -44 -38 -33 -61 -53 -44 -43 -71 -40 -58 -70 -58 -54 -48 -53 -83 -62 -58 -0 -86 -76 -71 -79 -51 -146 -196 -0 -0 -53 -0 -0
-62 -56 -72 -59 -31 -12 -13 -14 -8 -32 -87 -70 -62 -34 -32 -56 -56 -47 -51 -59 -49 -39 -45 -42 -41 -49 -33 -0 -0 -88 -54 -40 -58 -40 -73 -58 -226 -42 -0 -88 -60 -0 -0
-79 -104 -92 -71 -56 -41 -28 -36 -35 -50 -53 -69 -50 -60 -29 -38 -34 -34 -49 -49 -55 -71 -54 -52 -0 -0 -0 -0 -0 -0 -38 -37 -30 -53 -12 -0 -0 -0 -0 -108 -0 -0 -0
-37 -35 -55 -63 -66 -59 -6 -75 -5 -58 -41 -39 -38 -36 -19 -16 -25 -44 -47 -9 -0 -0 -0 -0 -0 -0 -0 -0 -0 -0 -0 -49 -53 -0 -0 -0 -0 -0 -0 -0 -0 -0 -0
Wind_Speed
12 12 nan nan nan 23 24 24 25 24 22 24 22 17 14 nan 10 15 16 25 25 24 26 26 24 23 22 20 19 19 19 19 18 18 17 18 16 16 15 16 16 19 23
13 15 16 19 21 22 20 21 21 21 20 21 nan nan 14 9 11 14 18 19 23 24 25 27 26 24 23 21 20 20 18 18 16 16 16 16 16 15 14 12 12 12 17
16 14 16 18 21 20 19 16 16 17 18 17 17 14 12 10 13 13 16 16 16 22 26 26 25 22 21 19 19 18 17 17 18 19 17 18 16 16 15 12 10 10 12
16 13 16 20 19 20 19 18 15 15 15 13 11 12 9 8 12 12 13 13 13 14 18 23 21 19 18 18 17 17 19 20 19 19 17 18 18 18 16 13 10 8 8
17 13 17 12 18 19 19 17 15 11 12 10 8 8 8 7 9 11 10 10 11 12 9 13 15 16 17 17 16 16 14 15 19 20 18 19 21 21 19 17 15 11 9
16 11 15 16 14 16 18 15 13 13 9 8 8 8 5 6 7 9 7 4 6 9 9 10 10 10 10 9 11 11 11 12 14 15 15 18 22 23 21 20 18 15 13
16 11 10 11 14 16 15 14 12 12 11 9 5 6 6 5 6 3 2 3 2 5 7 9 12 12 13 12 14 14 14 14 15 12 11 14 18 21 23 22 21 20 19
11 11 8 9 10 13 16 17 17 13 10 11 5 3 3 7 9 6 4 1 2 5 6 8 13 14 16 18 20 23 20 16 16 12 9 8 14 16 19 22 22 21 21
9 8 7 7 8 7 9 12 13 12 11 11 10 6 7 3 7 7 10 6 5 8 9 11 14 17 22 21 24 23 18 15 13 11 6 6 10 12 13 19 22 24 22
8 5 8 6 6 7 5 7 10 9 9 10 8 11 12 11 11 9 7 6 8 11 11 11 12 15 18 22 22 11 10 6 12 9 5 6 10 12 10 15 19 24 24
6 6 3 5 4 3 4 7 9 10 9 10 10 8 8 12 12 10 8 8 9 8 12 14 13 16 20 25 23 nan 7 6 4 6 4 8 13 12 11 15 12 21 24
7 7 3 3 4 4 4 5 6 8 9 11 9 9 8 10 9 9 8 7 7 10 12 11 13 17 18 17 11 9 5 2 4 3 10 9 14 12 13 15 10 14 23
7 6 6 5 5 5 5 6 7 7 9 10 8 8 8 9 10 12 11 10 9 10 10 12 12 12 11 6 5 5 5 nan 1 8 10 10 14 12 13 15 10 13 18
5 6 5 6 7 7 8 9 9 10 12 12 10 6 8 8 9 10 10 12 11 9 9 7 10 10 8 7 4 2 3 2 7 8 9 10 12 11 13 15 12 13 15
6 8 8 7 7 7 8 9 11 10 11 12 12 10 10 10 6 5 6 6 11 10 10 9 11 10 10 8 5 8 8 6 6 8 5 9 3 3 11 16 12 12 16
12 9 11 10 10 10 7 9 12 13 13 11 14 10 10 11 9 8 9 7 7 11 9 12 10 10 9 10 9 13 11 7 6 6 7 7 5 7 11 13 11 12 15
11 nan 10 11 10 10 9 11 13 13 13 14 16 15 9 10 9 10 10 10 9 13 12 11 12 11 8 9 10 13 14 15 13 9 8 4 4 3 4 4 9 13 13
14 nan nan 12 nan 9 12 11 13 13 12 12 15 16 11 13 11 12 12 9 10 12 14 12 12 9 10 11 10 10 10 12 12 10 13 8 3 2 2 2 5 5 6
14 16 17 16 15 17 16 16 14 15 16 15 17 18 14 14 14 15 13 13 12 12 13 14 12 11 12 13 13 13 13 11 11 10 11 6 3 4 4 5 4 2 7
17 18 17 16 23 23 21 18 17 17 19 18 20 24 21 22 18 15 15 12 12 13 16 15 14 nan 14 13 15 15 13 14 11 13 13 10 8 7 6 7 13 14 14
14 21 22 27 27 27 25 20 nan 21 21 22 27 29 24 30 27 21 19 17 18 13 17 19 18 17 15 15 16 16 17 15 12 17 16 15 17 15 16 15 17 18 19
nan nan 30 29 26 24 24 19 nan nan 22 25 29 29 27 25 26 23 22 21 17 18 20 21 23 20 17 18 19 19 19 21 20 16 19 13 20 18 nan nan nan 23 23
nan nan nan nan nan nan nan nan nan nan 25 25 31 28 35 36 32 30 31 35 35 32 29 26 27 nan nan nan nan nan nan nan nan 20 23 21 21 22 nan nan 25 nan nan
24 nan nan nan nan nan nan nan nan nan nan 28 28 35 34 39 40 nan nan nan 34 35 34 nan nan nan nan nan nan nan nan nan nan 26 nan nan nan nan nan nan nan nan nan
24 nan nan nan nan nan nan nan 28 27 28 31 31 26 31 34 nan nan nan nan nan nan nan nan nan nan nan nan nan nan nan nan nan nan nan nan nan nan nan nan nan nan nan
27 26 nan nan nan nan nan nan nan nan 28 nan nan nan nan nan nan nan nan nan nan nan nan nan nan nan nan nan nan nan nan nan nan nan nan nan nan nan nan nan nan nan nan
Wind_Direction
134 142 nan nan nan 142 143 148 146 140 140 135 128 105 95 nan 86 86 82 67 68 73 74 75 77 77 77 76 74 73 69 63 60 58 58 59 58 54 50 49 48 42 30
142 136 133 147 138 143 141 140 139 134 142 137 nan nan 113 110 88 79 76 82 74 78 82 78 77 74 73 71 69 66 61 60 56 51 48 48 46 48 43 39 41 40 39
100 112 129 131 132 133 130 139 136 140 138 135 146 138 134 125 101 83 79 78 81 82 79 80 77 76 76 77 76 72 59 50 46 47 41 36 34 35 35 45 55 50 13
105 114 131 128 148 144 144 146 137 141 138 145 151 131 128 115 107 93 89 86 82 77 75 75 76 72 67 62 58 53 47 36 32 41 47 40 36 35 40 50 52 43 25
89 109 133 133 144 139 138 138 136 139 139 139 125 120 115 124 109 96 83 87 90 83 85 87 72 63 58 51 38 37 32 27 25 23 31 40 41 39 39 43 45 42 32
89 105 108 130 138 136 123 133 137 148 153 137 131 122 144 144 128 100 97 111 100 88 63 56 54 43 49 37 27 22 17 13 21 18 23 30 36 39 44 42 46 44 42
98 105 113 126 124 121 147 147 148 161 161 161 186 166 185 112 100 126 180 204 104 59 58 32 20 20 12 3 343 346 338 349 354 6 13 33 37 38 46 47 50 48 49
98 94 108 119 129 153 161 163 164 158 169 171 219 233 201 181 214 201 266 305 300 353 333 12 353 1 353 342 342 337 331 335 330 335 360 25 42 46 51 48 48 48 49
108 104 103 123 147 160 176 167 162 177 180 184 208 254 253 285 289 246 240 251 271 291 307 321 332 337 335 334 329 318 326 332 332 326 5 30 46 46 59 52 44 46 48
107 105 142 169 158 153 183 168 170 201 202 204 202 225 246 266 277 279 258 260 269 276 285 304 320 320 313 305 298 307 293 306 321 334 29 68 59 53 53 60 44 42 46
151 129 103 121 106 155 176 207 194 208 198 216 220 216 229 249 256 275 271 246 255 281 286 292 301 302 297 317 289 nan 210 69 323 320 63 106 90 53 46 62 40 39 43
173 185 140 141 149 173 184 217 229 227 234 237 230 240 241 259 268 290 265 288 272 264 275 285 289 290 325 335 61 112 119 141 277 12 49 64 76 55 43 60 43 37 36
203 198 210 251 216 179 196 222 225 232 241 239 235 227 240 276 280 282 281 271 263 267 272 280 281 298 329 346 30 93 136 nan 169 61 53 70 72 49 35 40 37 41 40
220 254 242 247 266 256 258 255 237 236 259 263 262 231 236 242 268 290 294 283 271 288 284 289 268 296 305 331 27 94 330 46 44 48 56 69 56 36 27 32 35 40 32
236 252 248 259 248 242 255 267 260 263 267 273 273 249 248 258 256 272 283 295 290 292 288 279 285 284 285 288 293 303 326 357 31 39 20 54 39 350 18 35 32 47 33
238 240 236 237 246 250 237 252 264 271 273 265 270 280 243 249 250 264 277 278 284 295 291 303 296 294 295 294 299 295 307 337 18 29 7 3 359 330 9 26 44 58 52
246 nan 242 241 231 239 256 267 270 278 279 275 278 286 268 270 258 256 262 261 261 273 282 275 296 293 299 283 276 282 309 314 335 339 302 288 265 279 80 46 30 48 54
253 nan nan 246 nan 221 234 266 283 282 282 280 280 275 270 272 268 276 275 282 278 277 282 275 271 282 304 289 298 295 292 302 323 314 308 304 284 314 349 96 146 127 75
250 258 256 256 246 240 250 252 274 286 291 290 284 281 270 258 255 260 270 273 272 269 275 284 284 281 280 285 284 284 289 299 308 288 282 285 339 348 357 320 353 34 237
245 253 255 259 264 261 259 261 252 253 263 273 282 278 276 273 271 265 268 273 281 285 281 277 280 nan 282 279 285 289 277 291 291 285 294 321 326 312 294 277 258 249 262
255 253 257 253 249 252 251 252 nan 255 259 269 274 279 282 274 284 260 262 272 267 281 285 285 287 284 281 278 280 282 285 280 287 296 301 305 298 296 294 277 271 259 252
nan nan 254 257 263 252 247 246 nan nan 274 280 284 273 271 267 263 257 261 262 290 292 283 281 281 276 281 293 285 288 292 288 287 292 286 294 286 290 nan nan nan 261 263
nan nan nan nan nan nan nan nan nan nan 263 275 273 294 272 260 253 263 267 272 271 270 274 285 284 nan nan nan nan nan nan nan nan 289 286 288 284 278 nan nan 269 nan nan
247 nan nan nan nan nan nan nan nan nan nan 260 261 278 278 273 263 nan nan nan 270 268 270 nan nan nan nan nan nan nan nan nan nan 271 nan nan nan nan nan nan nan nan nan
246 nan nan nan nan nan nan nan 256 255 261 267 257 248 258 264 nan nan nan nan nan nan nan nan nan nan nan nan nan nan nan nan nan nan nan nan nan nan nan nan nan nan nan
250 250 nan nan nan nan nan nan nan nan 276 nan nan nan nan nan nan nan nan nan nan nan nan nan nan nan nan nan nan nan nan nan nan nan nan nan nan nan nan nan nan nan nan